Regional Weather Roundup
Issued by NWS

Home | Current Version | Previous Version | Graphics & Text | Print | Product List | Glossary On
Versions: 1 2 3 4 5 6 7 8 9 10 11 12 13 14 15 16 17 18 19 20 21 22 23 24 25 26 27 28 29 30 31 32 33 34 35 36 37 38 39 40 41 42 43 44 45 46 47 48 49 50
000
ASUS43 KDMX 252207
RWRIA

WEATHER ROUNDUP FOR IOWA
NATIONAL WEATHER SERVICE DES MOINES IA
400 PM CST SUN JAN 25 2015

NOTE: "FAIR" INDICATES FEW OR NO CLOUDS BELOW 12,000 FEET WITH NO
SIGNIFICANT WEATHER AND/OR OBSTRUCTIONS TO VISIBILITY.

* - THESE STATIONS ARE NOT NWS STATIONS...THUS NOT UNDER NWS
QUALITY CONTROL.  THEY ALSO DO NOT REPORT WEATHER SUCH
AS PRECIPITATION OR FOG.

IAZ001>003-012>014-020>022-031>034-043>046-252300-
   NORTHWEST IOWA

CITY           SKY/WX    TMP DP  RH WIND       PRES   REMARKS
CARROLL *      CLOUDY    34  28  80 N15       30.02R WCI  24
CHEROKEE *     CLOUDY    32  30  93 N6        30.05R WCI  26
DENISON *      CLOUDY    36  30  80 N10G16    30.02R WCI  28
LE MARS *      CLOUDY    36  32  87 N7        30.05S WCI  30
ORANGE CITY *  CLOUDY    36  30  80 N7        30.04R WCI  30
SHELDON *      CLOUDY    32  32 100 N7        30.02S WCI  26
SIOUX CITY     CLOUDY    37  33  85 NW9       30.05R WCI  30
SPENCER        CLOUDY    32  26  78 N10       30.03R WCI  24
STORM LAKE *   CLOUDY    32  28  86 N12       30.03R WCI  23
$$

IAZ055>058-069>071-079>083-090>094-252300-
   SOUTHWEST IOWA

CITY           SKY/WX    TMP DP  RH WIND       PRES   REMARKS
ATLANTIC *     CLOUDY    36  30  80 N14       30.02R WCI  27
AUDUBON *      PTSUNNY   34  28  80 N14G21    30.03R WCI  24
CLARINDA *     CLOUDY    37  32  81 N14G20    30.04R WCI  29
COUNCIL BLFS * CLOUDY    39  30  70 N13       30.02R WCI  32
CRESTON *      CLOUDY    34  32  93 N17       30.00R WCI  23
HARLAN  *      PTSUNNY   36  34  93 N15       30.06R WCI  26
LAMONI         CLOUDY    34  31  88 N14       29.96R WCI  25
RED OAK *      MOSUNNY   39  30  70 N15G22    30.02S WCI  31
SHENANDOAH *   PTSUNNY   41  32  70 N14       30.03R
$$

IAZ047>049-059>061-072>074-084-252300-
   CENTRAL IOWA

CITY           SKY/WX    TMP DP  RH WIND       PRES   REMARKS
AMES           CLOUDY    33  27  78 N13       30.01R WCI  24
ANKENY *       CLOUDY    34  30  86 N12       30.01R WCI  25
CHARITON *     CLOUDY    32  28  86 N14G22    29.97R WCI  22
DES MOINES     CLOUDY    35  28  75 N13       30.00R WCI  26
GRINNELL*      SUNNY     30  25  80 N9G16     29.97R WCI  22
KNOXVILLE *    CLOUDY    30  27  86 N9G16     29.97R WCI  22
MARSHALLTOWN   CLOUDY    32  27  81 N10       29.98R WCI  24
PELLA *        CLOUDY    32  28  86 N13       29.99R WCI  22
PERRY *          N/A     34  30  86 N13G20    30.02R WCI  25
$$

IAZ004>006-015-016-023>025-035-036-252300-
   NORTH CENTRAL IOWA

CITY           SKY/WX    TMP DP  RH WIND       PRES   REMARKS
ALGONA *       CLOUDY    30  28  93 NW16      30.03R WCI  19
CLARION *      CLOUDY    30  30 100 N10       30.02R WCI  21
ESTHERVILLE    CLOUDY    28  24  85 N10       30.03R WCI  19
FORT DODGE *   CLOUDY    32  25  74 N7        30.03R WCI  26
MASON CITY     CLOUDY    29  25  85 N8        30.02R WCI  21
FOREST CITY *  CLOUDY    30  28  93 NW12      30.01R WCI  21
IOWA FALLS *   CLOUDY    32  28  86 N12       30.01R WCI  23
$$

IAZ007>011-017>019-026>030-037>042-050>054-066-252300-
   NORTHEAST IOWA

CITY           SKY/WX    TMP DP  RH WIND       PRES   REMARKS
CEDAR RAPIDS   PTSUNNY   28  21  75 NE15      29.95R WCI  16
CHARLES CITY * CLOUDY    30  28  93 NW10      30.01R WCI  21
CLINTON *      MOCLDY    27  18  69 N15       29.96R WCI  15
DECORAH *      CLEAR     28  18  64 N12       29.98R WCI  18
DUBUQUE        CLEAR     24  15  68 NE20      29.95R WCI  10
MONTICELLO *   MOSUNNY   27  19  74 NE15G21   29.97R WCI  15
OELWEIN *      SUNNY     30  21  69 N12G17    29.97R WCI  21
WATERLOO       CLOUDY    31  26  82 N8        29.99R WCI  23
$$

IAZ064-065-067-068-078-252300-
   EAST CENTRAL IOWA

CITY           SKY/WX    TMP DP  RH WIND       PRES   REMARKS
DAVENPORT      CLOUDY    28  19  69 N16       29.93R WCI  16
IOWA CITY      CLOUDY    28  21  75 N15G23    29.98R WCI  16
MT. PLEASANT * CLOUDY    28  25  86 N17G23    29.93R WCI  16
MUSCATINE *    CLOUDY    30  23  74 N17G25    29.96R WCI  18
QUAD CITIES    CLOUDY    29  20  69 NE16      29.91R WCI  17
$$

IAZ062-063-075>077-085>089-095>099-252300-
   SOUTHEAST IOWA

CITY           SKY/WX    TMP DP  RH WIND       PRES   REMARKS
BURLINGTON     CLOUDY    30  27  88 N18       29.89R WCI  18
FAIRFIELD *    CLOUDY    30  25  80 N17       29.96R WCI  18
FORT MADISON * CLOUDY    32  28  86 N16G25    29.91R WCI  21
KEOKUK *       CLOUDY    32  28  86 N17       29.89R WCI  21
OSKALOOSA *    CLOUDY    30  27  86 N12G18    29.97R WCI  21
CENTERVILLE *  CLOUDY    30  28  93 N16G23    29.97R WCI  19
OTTUMWA        CLOUDY    30  26  85 N14       29.96R WCI  19
WASHINGTON *   CLOUDY    30  28  93 N18       29.96R WCI  18
$$

ABBREVIATIONS USED IN REMARKS
   TC - TEMPERATURES IN CELSIUS
  WCI - WIND CHILL INDEX
   HX - HEAT INDEX
  VSB - VISIBILITY
$$




USA.gov is the U.S. government's official web portal to all federal, state and local government web resources and services.